Login   


IX-F ID Name City Country Last updated API Traffic MANRS # of ASNs
899 48 IX (48 IX) US 2020-12-21 17:02:02 UTC 4
586 AKL-IX (New Zealand Internet Exchange, Auckland) Auckland NZ 2021-08-31 7:02:00 UTC 92
2 AMS-IX Amsterdam NL 2021-09-17 6:08:18 UTC 872
61 AMS-IX Caribbean Willemstad, Curacao AN 2021-09-14 9:01:35 UTC 12
356 AMS-IX Hong Kong Hong Kong CN 2021-09-14 9:01:35 UTC 62
532 AMS-IX USA Bay Area San Francisco US 2021-09-14 9:01:40 UTC 25
533 AMS-IX USA Chicago Chicago US 2021-09-14 9:01:39 UTC 25
741 BALT-IX (Baltic Internet Exchange) LT 2021-07-22 9:03:46 UTC 54
21 BCIX (BCIX Management GmbH) DE 2021-09-17 6:08:17 UTC 118
40 BIX.BG (BIX.BG - Bulgarian Internet eXchange) BG 2021-09-07 13:02:04 UTC 103
11 CATNIX (Catalunya Neutral Internet eXchange) ES 2021-09-17 6:08:18 UTC 45
852 CHC-IX (New Zealand Internet Exchange, Christchurch) Christchurch NZ 2021-08-31 7:02:04 UTC 15
28 CIX (Croatian Internet eXchange) Zagreb HR 2019-05-28 6:00:44 UTC 35
7 CIXP (CERN Internet Exchange Point) CH 2020-04-15 8:02:08 UTC 42
541 CRIX (Costa Rica Internet Exchange) (Costa Rica Internet Exchange) CR 2021-09-17 6:08:18 UTC 39
688 DE-CIX Delhi (DE-CIX Interwire Internet Services Pvt Ltd) IN 2021-09-17 6:03:31 UTC 44
580 DE-CIX DFW (DE-CIX Dallas) Dallas US 2021-09-17 6:08:17 UTC 103
565 DE-CIX DUS (DE-CIX Dusseldorf) Dusseldorf DE 2021-09-17 6:08:17 UTC 261
9 DE-CIX FRA (DE-CIX Frankfurt) Frankfurt am Main DE 2021-09-17 6:08:18 UTC 1076
47 DE-CIX HAM (DE-CIX Hamburg) Hamburg DE 2021-09-17 6:08:17 UTC 216
560 DE-CIX IST (DE-CIX Istanbul) Istanbul TR 2021-09-17 6:08:17 UTC 37
764 DE-CIX Johor Bahru (DE-CIX Asia / JBIX) MY 2021-09-17 6:08:17 UTC 49
765 DE-CIX LIS (DE-CIX Lisbon) Lisbon PT 2021-09-17 6:08:17 UTC 53
470 DE-CIX MAD (DE-CIX Madrid) Madrid ES 2021-09-17 6:08:17 UTC 217
559 DE-CIX MRS (DE-CIX Marseille) Marseilles FR 2021-09-17 6:08:17 UTC 107
54 DE-CIX MUC (DE-CIX Munich) Munich DE 2021-09-17 6:08:17 UTC 219
634 DE-CIX Mumbai (DE-CIX Interwire Internet Services Pvt Ltd) IN 2021-09-17 6:03:13 UTC 353
425 DE-CIX NYC (DE-CIX New York) New York US 2021-09-17 6:08:17 UTC 253
902 DE-CIX ORD (DE-CIX Chicago) Chicago US 2021-09-17 6:08:17 UTC 13
463 DO-IX LAN (DOrtmund Internet eXchange) DE 2021-08-29 18:01:54 UTC 10
487 Durban Internet Exchange Point (INX) ZA 2021-09-15 17:02:00 UTC 73
30 ECIX-BER DE 2020-02-20 14:16:12 UTC 61
340 ECIX-DUS DE 2020-02-20 14:16:13 UTC 112
431 ECIX-FRA DE 2020-02-20 14:16:16 UTC 107
341 ECIX-HAM DE 2020-02-20 14:16:15 UTC 60
77 ECIX-MUC DE 2020-02-20 14:16:17 UTC 53
835 EdgeIX Adelaide (EdgeIX) AU 2021-09-17 6:08:17 UTC 22
839 EdgeIX Brisbane (EdgeIX) AU 2021-09-17 6:08:17 UTC 22
841 EdgeIX Melbourne (EdgeIX) AU 2021-09-17 6:08:17 UTC 31
838 EdgeIX Perth (EdgeIX) AU 2021-09-17 6:08:17 UTC 46
840 EdgeIX Sydney (EdgeIX) AU 2021-09-17 6:08:17 UTC 75
683 EIX Delhi (Extreme Internet Exchange India) IN 2021-09-16 8:04:23 UTC 137
694 EIX Mumbai (Extreme Internet Exchange India) IN 2021-09-16 8:04:30 UTC 189
436 EPIX Warsaw (e-Poludnie Internet Exchange) PL 2021-08-03 16:02:22 UTC 463
39 Equinix Paris (Equinix Internet Exchange - Paris) Paris FR 2021-09-17 6:08:18 UTC 366
36 Equinix WA IX (Equinix Warsaw) Warsaw PL 2021-09-17 6:08:18 UTC 355
22 Equinix Zurich (Equinix Internet Exchange - Zurich) Zurich CH 2021-09-17 6:08:18 UTC 190
23 FICIX - Helsinki (Finnish Communication and Internet Exchange - Helsinki) Helsinki FI 2019-05-27 22:18:32 UTC 26
10 GIGAPIX (Gigabit Portuguese Internet Exchange) PT 2021-04-23 12:00:35 UTC 46
752 GR-IX::Athens (Greek Internet Exchange) GR 2021-09-17 6:08:18 UTC 57
753 GR-IX::Thessaloniki (Greek Internet Exchange) GR 2021-09-17 6:08:18 UTC 21
646 INEX Cork (Internet Neutral Exchange Association Limited by Guarantee) IE 2021-09-13 10:00:18 UTC 16
20 INEX LAN1 (Internet Neutral Exchange Association Limited by Guarantee) IE 2021-09-17 6:08:18 UTC 108
645 INEX LAN2 (Internet Neutral Exchange Association Limited by Guarantee) IE 2021-09-13 10:00:14 UTC 71
37 InterLAN Internet Exchange (Interlan IX) RO 2021-09-17 6:08:17 UTC 120
572 IX-AKL (Auckland IX) Auckland NZ 2021-09-17 6:02:04 UTC 95
608 IX-ASH (Ashburn IX) Ashburn US 2021-09-17 6:02:11 UTC 35
606 IX-BNE (Brisbane IX) Brisbane AU 2021-09-17 6:01:50 UTC 109
610 IX-DAL (Dallas IX) Dallas US 2021-09-17 6:02:12 UTC 24
650 IX-Denver (Interconnection Exchange Denver) US 2021-08-23 18:00:57 UTC 44
611 IX-LAX (Los Angeles IX) Los Angeles US 2021-09-17 6:02:09 UTC 28
563 IX-MEL (Melbourne IX) Melbourne AU 2021-09-17 6:01:55 UTC 155
607 IX-PER (Perth IX) Perth AU 2021-09-17 6:02:14 UTC 61
613 IX-SEA (Seattle IX) Seattle US 2021-09-17 6:02:09 UTC 14
574 IX-SIN (Singapore IX) Singapore SG 2021-09-17 6:02:02 UTC 41
731 IX-SOF (Sofia IX) Sofia BG 2021-09-17 6:02:17 UTC 25
570 IX-SYD (Sydney IX) Sydney AU 2021-09-17 6:01:35 UTC 304
575 IX-TOR (Toronto IX) Toronto CA 2021-09-17 6:02:14 UTC 9
156 IX.br Curitiba, PR (PR)) Curitiba BR 2021-09-11 6:02:03 UTC 166
263 IX.br Fortaleza, CE (CE)) Fortaleza BR 2021-08-28 6:01:55 UTC 474
158 IX.br Porto Alegre, RS (RS)) Porto Alegre BR 2021-09-15 6:02:12 UTC 282
159 IX.br Rio de Janeiro, RJ (RJ)) Rio de Janeiro BR 2021-08-28 6:02:04 UTC 470
160 IX.br Salvador, BA (BA)) Salvador da Bahia BR 2021-07-31 6:01:47 UTC 105
791 IX.br Sao Paulo, SP (SP)) São Paulo BR 2021-09-16 6:02:34 UTC 2413
143 IXP-BUE (CABASE IX BUE - Ciudad de Bueno Aires, Argentina (Cabase.org.ar)) AR 2021-09-17 6:08:18 UTC 125
60 IXPN-LOS (INTERNET EXCHANGE POINT OF NIGERIA) NG 2021-09-15 18:02:25 UTC 75
95 Johannesburg Internet Exchange Point (INX) ZA 2021-09-15 17:02:05 UTC 124
78 KleyReX (KleyReX Internet Exchange) DE 2021-09-16 8:04:02 UTC 414
1 LINX LON1 (LINX LON1) GB 2021-09-17 6:08:18 UTC 825
349 LINX Manchester (LINX Manchester) GB 2021-09-17 6:08:18 UTC 120
426 LINX NoVA (LINX NoVA) US 2021-09-17 6:08:18 UTC 53
409 LINX Scotland (LINX Scotland) GB 2021-09-17 6:08:18 UTC 33
18 LONAP Network (LONAP Ltd.) GB 2021-09-17 6:08:17 UTC 232
681 LSIX Netherlands (LayerSwitch Internet Exchange) NL 2021-08-25 20:02:08 UTC 64
399 MBIX (Manitoba Internet Exchange) Manitoba CA 2021-09-17 6:08:17 UTC 29
164 MINAP (Milan Neutral Access Point) IT 2021-09-17 6:08:17 UTC 76
8 MIX (Milan Internet Exchange) IT 2021-09-17 6:08:18 UTC 345
13 msk-ix (MSK-IX public peering VLAN) Moscow RU 2021-09-17 6:08:18 UTC 443
17 NAMEX (NAMEX Roma IXP) IT 2021-09-17 6:08:18 UTC 173
153 NAP.EC-UIO (NAP.EC (AEPROVI) - Quito) EC 2021-09-17 6:08:18 UTC 18
648 NAPAfrica IX Cape Town (NAPAfrica) ZA 2021-09-17 6:08:17 UTC 230
649 NAPAfrica IX Durban (NAPAfrica) ZA 2021-09-17 6:08:17 UTC 104
351 NAPAfrica IX Johannesburg (NAPAfrica) ZA 2021-09-17 6:08:17 UTC 472
413 NetIX (NetIX Communications) BG 2021-09-17 6:08:17 UTC 98
15 NIX.CZ (NIX.CZ, z.s.p.o.) CZ 2021-09-14 12:00:15 UTC 182
552 NIX.SK (NIX.CZ, z.s.p.o. organizacna zlozka) SK 2021-09-17 6:08:17 UTC 55
27 NL-ix The Hague NL 2021-09-17 6:08:18 UTC 454
394 NSW-IX (IX Australia (Sydney NSW)) Sydney AU 2020-07-06 2:01:26 UTC 204
811 OGIX-LAN (Ottawa Gatineau Internet Exchange) Manitoba CA 2021-09-17 6:08:17 UTC 5
850 OhioIX (Ohio IX) US 2021-09-08 14:02:06 UTC 35
410 Peering.cz Prague CZ 2021-09-14 14:03:17 UTC 168
268 Phoenix-IX (Ninja-IX) US 2021-08-28 5:01:57 UTC 64
729 Pittsburgh Internet Exchange (Pittsburgh Internet Exchange) US 2021-09-09 16:03:18 UTC 19
266 QIX (Quebec Internet Exchange) Manitoba CA 2021-09-17 6:08:17 UTC 85
392 QLD-IX (IX Australia (Brisbane QLD)) Brisbane AU 2021-09-14 4:01:51 UTC 84
33 RIX (Reykjavik Internet Exchange) IS 2021-07-13 3:01:45 UTC 27
391 SA-IX (IX Australia (Adelaide SA)) Adelaide AU 2021-09-14 4:01:54 UTC 50
223 SFMIX (San Francisco Metropolitan Internet Exchange) US 2021-08-11 18:00:15 UTC 82
148 SIX Seattle (Seattle Internet Exchange (MTU 1500)) US 2021-09-16 21:00:14 UTC 346
87 spb-ix (SPB-IX public peering VLAN) St.-Petersburg RU 2021-09-17 6:01:11 UTC 86
898 SpeedIX Internet Exchange (SpeedIX Internet Exchange) NL 2021-09-14 17:03:12 UTC 213
713 STHIX - Copenhagen (Stockholm Internet eXchange AB) DK 2021-09-17 6:08:17 UTC 25
712 STHIX - Gothenburg (Stockholm Internet eXchange AB) SE 2021-09-17 6:08:17 UTC 13
144 STHIX - Stockholm (Stockholm Internet eXchange AB) SE 2021-09-17 6:08:17 UTC 115
884 STLIX (Saint Louis Internet Exchange) US 2020-08-29 18:02:41 UTC 20
34 SwissIX (SwissIX Internet Exchange) CH 2021-09-17 6:08:18 UTC 227
163 TorIX (Toronto Internet Exchange) Manitoba CA 2021-09-17 6:08:18 UTC 267
757 TTPL LAN (Bhutan Internet Exchange) BT 2021-05-29 9:02:02 UTC 13
927 Vegas-IX (Ninja-IX) US 2021-08-28 5:02:02 UTC 10
393 VIC-IX (IX Australia (Melbourne VIC)) Melbourne AU 2020-07-06 2:01:40 UTC 108
3 VIX (Vienna Internet Exchange) AT 2020-09-23 16:01:28 UTC 149
108 WA-IX (IX Australia (Perth WA)) Perth AU 2020-07-06 2:01:44 UTC 97

Export to CSV